Tracking 19709 objects as of 19-Jun-2019
HD Live streaming from Space Station
objects crossing your sky now

DELTA 1 DEB

Track DELTA 1 DEB now!
10-day predictions


NORAD ID: 9701
Int'l Code: 1973-086FZ
Perigee: 1,188.3 km
Apogee: 1,286.0 km
Inclination: 102.7 °
Period: 110.1 minutes
Semi major axis: 7608 km
RCS: 0.0221 m2 (small)
Launch date: November 6, 1973
Source: United States (US)
Launch site: AIR FORCE WESTERN TEST RANGE (AFWTR)

Note: This is SATELLITE DEBRIS
aabbcc
Your satellite tracking list
Your tracking list is empty




NASA's NSSDC Master Catalog

Two Line Element Set (TLE):
1  9701U 73086FZ  19170.17122429  .00001818  00000-0  54838-2 0  9995
2  9701 102.7275 236.8970 0064187 213.7039 205.3542 13.08223494115777
Source of the keplerian elements: AFSPC